Weather Roundup
Issued by NWS Chicago, IL

Home | Current Version | Previous Version | Graphics & Text | Print | Product List | Glossary On
Versions: 1 2 3 4 5 6 7 8 9 10 11 12 13 14 15 16 17 18 19 20 21 22 23 24 25 26 27 28 29 30 31 32 33 34 35 36 37 38 39 40 41 42 43 44 45 46 47 48 49 50
000
NZUS59 KLOT 180603
HRRLOT

CHICAGO AREA WEATHER ROUNDUP
NATIONAL WEATHER SERVICE CHICAGO/ROMEOVILLE IL
100 AM CDT FRI AUG 18 2017

NOTE: "FAIR" INDICATES FEW OR NO CLOUDS BELOW 12,000 FEET WITH NO
SIGNIFICANT WEATHER AND/OR OBSTRUCTIONS TO VISIBILITY.

* THESE STATIONS ARE NOT UNDER NWS QUALITY CONTROL. THEY ALSO MAY NOT
  REPORT WEATHER SUCH AS PRECIPITATION OR FOG.

ILZ005-006-012>014-019>023-180700-
NORTHEAST ILLINOIS

CITY           SKY/WX    TMP DP  RH WIND       PRES   REMARKS
OHARE          PTCLDY    72  63  73 W12       29.77S
6HR MIN TEMP:  72; 6HR MAX TEMP:  80;

MIDWAY         PTCLDY    73  65  75 W10       29.77S
6HR MIN TEMP:  73; 6HR MAX TEMP:  80;

AURORA         CLEAR     67  65  93 W8        29.80S
6HR MIN TEMP:  67; 6HR MAX TEMP:  78;

LANSING*       CLEAR     72  62  72 W10G16    29.79F
JOLIET*        CLEAR     71  66  85 W7        29.80F
WAUKEGAN       CLOUDY    69  64  84 VRB5      29.75R
6HR MIN TEMP:  69; 6HR MAX TEMP:  77; 6HR PCP: TRACE;

DUPAGE AIRPORT CLEAR     70  66  87 W12       29.78S
6HR MIN TEMP:  70; 6HR MAX TEMP:  78; 6HR PCP: TRACE;

WHEELING       CLOUDY    69  65  86 W12       29.78R
6HR MIN TEMP:  69; 6HR MAX TEMP:  80; 6HR PCP: TRACE;

MORRIS*        CLEAR     67  64  90 W8        29.80S
NORTHERLY ISL    N/A     73  62  68 SW9         N/A
$$

WIZ051-052-058>065-066-070>072-180700-
SOUTHEAST WISCONSIN

CITY           SKY/WX    TMP DP  RH WIND       PRES   REMARKS
MILWAUKEE      PTCLDY    69  61  75 W13G22    29.72S
6HR MIN TEMP:  69; 6HR MAX TEMP:  77;

KENOSHA*       CLOUDY    69  61  75 W12       29.75R
RACINE*        CLEAR     68  62  81 W14       29.75S
$$

INZ001>003-010>013-019-020-180700-
NORTHWEST INDIANA

CITY           SKY/WX    TMP DP  RH WIND       PRES   REMARKS
GARY*          CLEAR     75  63  66 W10       29.79S
6HR MIN TEMP:  75; 6HR MAX TEMP:  82;

MICHIGAN CITY* NOT AVBL
RENSSELAER*    NOT AVBL
VALPARAISO     CLEAR     69  65  86 S5        29.79F
$$

LMZ740>746-180700-
SOUTHERN LAKE MICHIGAN

STATION/POSITION TIME  SKY/WX   TEMP WIND        PRES    VSBY
                                AIR  DIR/SP/G
                 (UTC)          (F)  (DEG/KT/KT) (MB)    (MI)
HARRISON CRIB    0540            75  260/ 18/ 22   N/A
BURNHAM HARBOR   NOT AVBL
CALUMET HARBOR   0530            74  230/  7/ 14 1007.8F
BURNS HARBOR     0540            75  260/ 15/ 17 1008.8F
MICHIGAN CITY    0540            74  240/ 19/ 22   N/A
$$

ABBREVIATIONS USED IN REMARKS
   TC - TEMPERATURE IN CELSIUS
  WCI - WIND CHILL INDEX
   HX - HEAT INDEX
  VSB - VISIBILITY
$$




USA.gov is the U.S. government's official web portal to all federal, state and local government web resources and services.